EW0663 Weather Reports


time (UTC)temp
C
wind
direction
speed
KPH
gust
KPH
rain 1hr
cm
rain 24hr
cm
rain mn
cm
humidity
%
barometer
mb
20260906174733 36 58 1.6 9.7 0.00 0.00 0.00 46 1012.3
20260906173723 35 127 1.6 9.7 0.00 0.00 0.00 48 1012.5
20260906172737 35 126 1.6 9.7 0.00 0.00 0.00 51 1012.6
20260906171722 35 126 1.6 8.0 0.00 0.00 0.00 50 1012.8
20260906170719 34 157 3.2 11.3 0.00 0.00 0.00 52 1013.1
20260906165709 34 119 1.6 11.3 0.00 0.00 0.00 53 1013.1
20260906164701 33 136 1.6 11.3 0.00 0.00 0.00 54 1013.3
20260906163637 33 132 1.6 9.7 0.00 0.00 0.00 57 1013.3
20260906162648 33 134 1.6 9.7 0.00 0.00 0.00 57 1013.3
20260906161616 33 96 0.0 4.8 0.00 0.00 0.00 60 1013.3
20260906160621 32 143 1.6 6.4 0.00 0.00 0.00 61 1013.3
20260906155636 32 148 1.6 9.7 0.00 0.00 0.00 61 1013.2
20260906154637 32 125 3.2 9.7 0.00 0.00 0.00 62 1013.1
20260906151320 30 147 1.6 6.4 0.00 0.00 0.00 67 1013.1
20260906150319 30 131 3.2 11.3 0.00 0.00 0.00 68 1013.1
20260906145331 30 130 3.2 11.3 0.00 0.00 0.00 67 1013.1
20260906144339 30 129 3.2 9.7 0.00 0.00 0.00 68 1013.2
20260906142241 29 127 1.6 6.4 0.00 0.00 0.00 69 1013.1
20260906141241 29 126 1.6 6.4 0.00 0.00 0.00 69 1013.1
20260906140304 28 138 1.6 9.7 0.00 0.00 0.00 70 1013.0
20260906135248 28 137 1.6 9.7 0.00 0.00 0.00 71 1013.0
20260906132040 27 126 1.6 4.8 0.00 0.00 0.00 73 1012.8
20260906125953 26 130 0.0 3.2 0.00 0.00 0.00 76 1012.6
20260906124947 26 130 0.0 0.0 0.00 0.00 0.00 76 1012.5
20260906123916 26 130 0.0 0.0 0.00 0.00 0.00 76 1012.3
20260906122910 26 130 0.0 0.0 0.00 0.00 0.00 75 1012.2
20260906121854 26 130 0.0 0.0 0.00 0.00 0.00 74 1012.1
20260906120844 26 130 0.0 0.0 0.00 0.00 0.00 74 1012.0
20260906115827 26 130 0.0 0.0 0.00 0.00 0.00 75 1012.0
20260906114800 26 130 0.0 0.0 0.00 0.00 0.00 75 1012.0
20260906113736 26 130 0.0 0.0 0.00 0.00 0.00 75 1012.0
20260906105324 26 138 0.0 3.2 0.00 0.00 0.00 72 1011.8
20260906104301 26 133 0.0 0.0 0.00 0.00 0.00 72 1011.8
20260906103318 26 133 0.0 0.0 0.00 0.00 0.00 72 1011.8
20260906101209 26 133 0.0 0.0 0.00 0.00 0.00 72 1011.6
20260906100157 26 133 0.0 0.0 0.00 0.00 0.00 72 1011.5
20260906095156 26 133 0.0 0.0 0.00 0.00 0.00 72 1011.5
20260906094144 27 133 0.0 0.0 0.00 0.00 0.00 71 1011.5
20260906093117 27 133 0.0 0.0 0.00 0.00 0.00 71 1011.5
20260906092107 27 133 0.0 0.0 0.00 0.00 0.00 71 1011.4
20260906090015 27 133 0.0 0.0 0.00 0.00 0.00 70 1011.4
20260906083820 27 133 0.0 0.0 0.00 0.00 0.00 70 1011.2
20260906081644 27 133 0.0 0.0 0.00 0.00 0.00 68 1011.2
20260906080625 27 133 0.0 0.0 0.00 0.00 0.00 67 1011.2
20260906075605 27 133 0.0 0.0 0.00 0.00 0.00 67 1011.1
20260906073439 28 133 0.0 1.6 0.00 0.00 0.00 66 1011.1
20260906072452 28 133 0.0 0.0 0.00 0.00 0.00 66 1011.1
20260906070347 28 133 0.0 0.0 0.00 0.00 0.00 67 1011.1
20260906065401 28 133 0.0 0.0 0.00 0.00 0.00 66 1011.3
20260906064353 28 133 0.0 0.0 0.00 0.00 0.00 66 1011.3
20260906063318 28 133 0.0 0.0 0.00 0.00 0.00 66 1011.3
20260906062251 28 133 0.0 0.0 0.00 0.00 0.00 66 1011.4
20260906061220 28 133 0.0 0.0 0.00 0.00 0.00 65 1011.4
20260906060158 28 133 0.0 0.0 0.00 0.00 0.00 64 1011.5
20260906055138 28 133 0.0 0.0 0.00 0.00 0.00 63 1011.5
20260906054136 29 133 0.0 0.0 0.00 0.00 0.00 63 1011.6
20260906053146 29 133 0.0 0.0 0.00 0.00 0.00 62 1011.6
20260906052115 30 133 0.0 0.0 0.00 0.00 0.00 61 1011.6
20260906051055 30 133 0.0 0.0 0.00 0.00 0.00 60 1011.6
20260906050025 30 133 0.0 0.0 0.00 0.00 0.00 60 1011.6
20260906045010 30 133 0.0 0.0 0.00 0.00 0.00 59 1011.5
20260906042857 30 133 0.0 1.6 0.00 0.00 0.00 60 1011.6
20260906041917 30 133 0.0 1.6 0.00 0.00 0.00 61 1011.5
20260906040931 30 133 0.0 1.6 0.00 0.00 0.00 62 1011.4
20260906034802 30 133 0.0 0.0 0.00 0.00 0.00 61 1011.2
20260906033802 31 133 0.0 0.0 0.00 0.00 0.00 60 1011.1
20260906032748 31 133 0.0 1.6 0.00 0.00 0.00 60 1011.0
20260906031736 31 133 0.0 1.6 0.00 0.00 0.00 60 1011.0
20260906030747 31 133 0.0 0.0 0.00 0.00 0.00 60 1010.9
20260906025812 31 133 0.0 1.6 0.00 0.00 0.00 60 1010.8
20260906024819 31 133 0.0 0.0 0.00 0.00 0.00 60 1010.6
20260906023747 31 133 0.0 0.0 0.00 0.00 0.00 59 1010.5
20260906022737 31 133 0.0 1.6 0.00 0.00 0.00 59 1010.3
20260906021708 31 133 0.0 0.0 0.00 0.00 0.00 59 1010.3
20260906015522 31 133 0.0 0.0 0.00 0.00 0.00 58 1010.0
20260906014515 32 133 0.0 0.0 0.00 0.00 0.00 58 1009.9
20260906013456 32 133 0.0 0.0 0.00 0.00 0.00 57 1009.8
20260906011345 32 133 0.0 3.2 0.00 0.00 0.00 56 1009.5
20260906010326 32 128 0.0 0.0 0.00 0.00 0.00 56 1009.6
20260906003117 33 128 0.0 0.0 0.00 0.00 0.00 54 1009.4
20260906002050 34 128 0.0 0.0 0.00 0.00 0.00 53 1009.5
20260906001039 34 128 0.0 0.0 0.00 0.00 0.00 51 1009.5
20260906000044 34 128 0.0 1.6 0.00 0.00 0.00 50 1009.4
20260905235059 35 128 0.0 0.0 0.00 0.00 0.00 50 1009.5
20260905234040 35 128 0.0 4.8 0.00 0.00 0.00 48 1009.4
20260905233020 35 128 1.6 4.8 0.00 0.00 0.00 48 1009.3
20260905231954 35 128 1.6 9.7 0.00 0.00 0.00 48 1009.3
20260905231004 35 127 1.6 9.7 0.00 0.00 0.00 46 1009.2
20260905225959 36 135 1.6 9.7 0.00 0.00 0.00 46 1009.3
20260905224949 36 128 1.6 9.7 0.00 0.00 0.00 44 1009.2
20260905223936 36 129 1.6 6.4 0.00 0.00 0.00 44 1009.3
20260905222931 36 127 1.6 12.9 0.00 0.00 0.00 45 1009.3
20260905221953 36 127 3.2 12.9 0.00 0.00 0.00 43 1009.4
20260905220952 37 150 3.2 11.3 0.00 0.00 0.00 38 1009.5
20260905214804 37 168 0.0 6.4 0.00 0.00 0.00 36 1009.7
20260905212654 37 158 3.2 9.7 0.00 0.00 0.00 36 1009.9
20260905211645 37 137 3.2 9.7 0.00 0.00 0.00 36 1010.0
20260905210632 37 136 1.6 9.7 0.00 0.00 0.00 37 1010.1
20260905205625 37 151 1.6 9.7 0.00 0.00 0.00 37 1010.2
20260905203532 38 140 1.6 8.0 0.00 0.00 0.00 37 1010.3
20260905202524 38 215 1.6 6.4 0.00 0.00 0.00 37 1010.6
20260905201504 38 188 1.6 6.4 0.00 0.00 0.00 35 1010.8
20260905200445 38 171 0.0 6.4 0.00 0.00 0.00 38 1010.9
20260905195415 38 163 0.0 6.4 0.00 0.00 0.00 37 1011.1
20260905194358 37 232 1.6 6.4 0.00 0.00 0.00 37 1011.1
20260905193402 37 153 1.6 8.0 0.00 0.00 0.00 37 1011.2
20260905192350 37 218 1.6 9.7 0.00 0.00 0.00 37 1011.2
20260905191320 37 136 1.6 9.7 0.00 0.00 0.00 39 1011.3
20260905190256 37 217 1.6 9.7 0.00 0.00 0.00 39 1011.4
20260905185257 36 149 0.0 4.8 0.00 0.00 0.00 40 1011.6
20260905184308 36 190 0.0 4.8 0.00 0.00 0.00 42 1011.7
20260905183251 36 279 0.0 0.0 0.00 0.00 0.00 45 1011.8
20260905181124 37 279 0.0 4.8 0.00 0.00 0.00 41 1012.1
20260905180144 37 192 0.0 4.8 0.00 0.00 0.00 41 1012.3